EZY9JK EGKK-LSGG

Flight info

Callsign EZY9JK
Flight time N/A
Altitude 31000
Route SFD Y47 BENBO L612 HAWKE UL612 VEULE DCT PEKIM DCT PILUL DCT PIMUP/N0444F270 DCT PIXIS DCT PIBAT DCT LUSAR
Aircraft A320/M-SDE3FGHIRWY/LB1

Departure

Time 2026-04-30 13:31
Airport London Gatwick Airport (EGKK)

Arrival

Time N/A
Airport Geneva International Airport (LSGG)
Time Latitude Longitude Altitude Speed Heading
2026-04-30 12:53 51.15661 -0.17700 205 ft 0 kts 168°
2026-04-30 13:17 51.15666 -0.17702 216 ft 3 kts 168°
2026-04-30 13:17 51.15699 -0.17710 211 ft 3 kts 178°
2026-04-30 13:18 51.15725 -0.17706 208 ft 3 kts 206°
2026-04-30 13:18 51.15738 -0.17688 212 ft 0 kts 255°
2026-04-30 13:22 51.15721 -0.17791 205 ft 10 kts 256°
2026-04-30 13:22 51.15710 -0.17888 205 ft 9 kts 258°
2026-04-30 13:22 51.15678 -0.18113 206 ft 9 kts 258°
2026-04-30 13:23 51.15664 -0.18224 208 ft 12 kts 258°
2026-04-30 13:23 51.15631 -0.18458 214 ft 12 kts 257°
2026-04-30 13:24 51.15590 -0.18764 216 ft 13 kts 258°
2026-04-30 13:24 51.15436 -0.18791 207 ft 14 kts 167°
2026-04-30 13:25 51.15214 -0.18714 205 ft 14 kts 167°
2026-04-30 13:25 51.15121 -0.18805 205 ft 12 kts 256°
2026-04-30 13:26 51.15059 -0.19245 205 ft 9 kts 244°
2026-04-30 13:26 51.14961 -0.19312 208 ft 11 kts 247°
2026-04-30 13:27 51.14909 -0.19657 214 ft 22 kts 257°
2026-04-30 13:28 51.14808 -0.20399 208 ft 20 kts 257°
2026-04-30 13:28 51.14752 -0.20797 215 ft 17 kts 256°
2026-04-30 13:28 51.14729 -0.20980 208 ft 19 kts 259°
2026-04-30 13:29 51.14680 -0.21306 209 ft 12 kts 241°
2026-04-30 13:29 51.14546 -0.21283 211 ft 12 kts 136°
2026-04-30 13:30 51.14563 -0.20880 208 ft 56 kts 78°
2026-04-30 13:31 51.14887 -0.18488 406 ft 144 kts 79°
2026-04-30 13:31 51.15551 -0.13405 2229 ft 178 kts 82°
2026-04-30 13:32 51.16126 -0.09107 3031 ft 208 kts 88°
2026-04-30 13:32 51.14742 -0.05324 4045 ft 231 kts 157°
2026-04-30 13:33 51.11440 -0.04083 5644 ft 249 kts 166°
2026-04-30 13:33 51.08017 -0.02898 7402 ft 255 kts 163°
2026-04-30 13:34 51.06291 -0.02116 8245 ft 259 kts 161°
2026-04-30 13:34 51.01005 0.00444 10667 ft 272 kts 161°
2026-04-30 13:35 50.99179 0.01324 11410 ft 276 kts 161°
2026-04-30 13:35 50.95449 0.03103 12920 ft 284 kts 161°
2026-04-30 13:36 50.91618 0.04913 14341 ft 291 kts 161°
2026-04-30 13:36 50.89616 0.05918 14525 ft 313 kts 160°
2026-04-30 13:36 50.85267 0.08318 14771 ft 353 kts 159°
2026-04-30 13:37 50.82914 0.09643 15102 ft 364 kts 159°
2026-04-30 13:37 50.78089 0.12328 16236 ft 371 kts 160°
2026-04-30 13:38 50.73170 0.15032 17401 ft 377 kts 160°
2026-04-30 13:38 50.70682 0.16391 17937 ft 380 kts 160°
2026-04-30 13:38 50.65644 0.19138 18954 ft 386 kts 160°
2026-04-30 13:39 50.60580 0.21897 19933 ft 390 kts 160°
2026-04-30 13:39 50.55424 0.24698 20899 ft 393 kts 159°
2026-04-30 13:40 50.52832 0.26104 21356 ft 395 kts 159°
2026-04-30 13:40 50.50225 0.27517 21835 ft 397 kts 159°
2026-04-30 13:40 50.47605 0.28935 22290 ft 399 kts 159°
2026-04-30 13:40 50.45005 0.30340 22722 ft 401 kts 159°
2026-04-30 13:41 50.42359 0.31769 23169 ft 403 kts 159°
2026-04-30 13:41 50.39701 0.33204 23597 ft 405 kts 159°
2026-04-30 13:41 50.37029 0.34645 23967 ft 407 kts 159°
2026-04-30 13:41 50.34339 0.36091 24315 ft 409 kts 159°
2026-04-30 13:42 50.31637 0.37538 24659 ft 411 kts 159°
2026-04-30 13:42 50.28929 0.38993 25003 ft 413 kts 159°
2026-04-30 13:42 50.23467 0.41928 25677 ft 417 kts 159°
2026-04-30 13:43 50.20716 0.43402 25979 ft 419 kts 159°
2026-04-30 13:43 50.18439 0.44618 26240 ft 421 kts 159°
2026-04-30 13:43 50.17725 0.44998 26319 ft 421 kts 159°
2026-04-30 13:43 50.14946 0.46476 26635 ft 423 kts 159°
2026-04-30 13:44 50.12153 0.47962 26930 ft 425 kts 159°
2026-04-30 13:44 50.09350 0.49455 27228 ft 426 kts 159°
2026-04-30 13:44 50.06538 0.50953 27520 ft 428 kts 159°
2026-04-30 13:44 50.03711 0.52458 27798 ft 430 kts 159°
2026-04-30 13:45 49.98019 0.55478 28366 ft 433 kts 159°
2026-04-30 13:45 49.95168 0.56985 28772 ft 432 kts 159°
2026-04-30 13:45 49.92364 0.58466 29178 ft 431 kts 159°
2026-04-30 13:46 49.89529 0.59963 29565 ft 430 kts 159°
2026-04-30 13:46 49.86792 0.61793 29950 ft 428 kts 150°
2026-04-30 13:46 49.84281 0.64255 30319 ft 426 kts 142°
2026-04-30 13:46 49.82049 0.67251 30648 ft 425 kts 136°
2026-04-30 13:47 49.79904 0.70395 30983 ft 424 kts 136°
2026-04-30 13:47 49.77759 0.73528 31303 ft 424 kts 136°
2026-04-30 13:47 49.75611 0.76650 31636 ft 423 kts 136°
2026-04-30 13:47 49.73462 0.79758 31967 ft 423 kts 136°
2026-04-30 13:48 49.71344 0.82817 32283 ft 423 kts 136°
2026-04-30 13:48 49.69200 0.85920 32596 ft 422 kts 136°
2026-04-30 13:48 49.67055 0.89022 32914 ft 422 kts 136°
2026-04-30 13:48 49.64914 0.92114 33241 ft 421 kts 136°
2026-04-30 13:49 49.62774 0.95202 33556 ft 421 kts 136°
2026-04-30 13:49 49.60631 0.98281 33868 ft 421 kts 137°
2026-04-30 13:49 49.58493 1.01348 34190 ft 420 kts 137°
2026-04-30 13:49 49.56382 1.04380 34455 ft 420 kts 136°
2026-04-30 13:50 49.54246 1.07448 34700 ft 421 kts 137°
2026-04-30 13:50 49.49959 1.13594 35150 ft 422 kts 137°
2026-04-30 13:50 49.47807 1.16663 35362 ft 423 kts 137°
2026-04-30 13:51 49.45647 1.19739 35575 ft 423 kts 137°
2026-04-30 13:51 49.43486 1.22816 35781 ft 424 kts 137°
2026-04-30 13:51 49.41326 1.25888 35998 ft 424 kts 137°
2026-04-30 13:51 49.39193 1.28924 36203 ft 424 kts 137°
2026-04-30 13:52 49.37029 1.32005 36410 ft 424 kts 137°
2026-04-30 13:52 49.34867 1.35076 36618 ft 424 kts 137°
2026-04-30 13:52 49.32695 1.38149 36808 ft 424 kts 137°
2026-04-30 13:52 49.30525 1.41213 37000 ft 424 kts 137°
2026-04-30 13:53 49.28356 1.44275 37136 ft 425 kts 137°
2026-04-30 13:53 49.26178 1.47345 37159 ft 425 kts 137°
2026-04-30 13:53 49.21838 1.53465 37146 ft 425 kts 137°
2026-04-30 13:54 49.17519 1.59544 37142 ft 425 kts 137°
2026-04-30 13:54 49.13159 1.65651 37141 ft 425 kts 137°
2026-04-30 13:55 49.08792 1.71741 37140 ft 425 kts 137°
2026-04-30 13:55 49.04424 1.77829 37141 ft 425 kts 137°
2026-04-30 13:56 49.00051 1.83915 37131 ft 426 kts 137°
2026-04-30 13:56 48.95705 1.89952 37139 ft 426 kts 137°
2026-04-30 13:57 48.91321 1.96009 37143 ft 426 kts 137°
2026-04-30 13:57 48.86935 2.02065 37140 ft 426 kts 137°
2026-04-30 13:58 48.80355 2.11125 37140 ft 426 kts 137°
2026-04-30 13:59 48.75960 2.17162 37141 ft 427 kts 137°
2026-04-30 13:59 48.71589 2.23159 37143 ft 427 kts 137°
2026-04-30 14:00 48.67178 2.29179 37166 ft 427 kts 137°
2026-04-30 14:00 48.60549 2.38176 37158 ft 427 kts 137°
2026-04-30 14:01 48.56158 2.44128 37137 ft 427 kts 137°
2026-04-30 14:01 48.51738 2.50120 37139 ft 427 kts 137°
2026-04-30 14:02 48.47308 2.56117 37136 ft 428 kts 137°
2026-04-30 14:02 48.42876 2.62080 37143 ft 428 kts 137°
2026-04-30 14:03 48.38466 2.68006 37142 ft 428 kts 137°
2026-04-30 14:03 48.34022 2.73954 37136 ft 428 kts 137°
2026-04-30 14:04 48.29571 2.79904 37133 ft 428 kts 137°
2026-04-30 14:04 48.25054 2.85725 37138 ft 428 kts 141°
2026-04-30 14:05 48.20320 2.91173 37127 ft 429 kts 142°
2026-04-30 14:05 48.15567 2.96499 37125 ft 430 kts 142°
2026-04-30 14:06 48.08356 3.04497 37120 ft 431 kts 149°
2026-04-30 14:07 48.00128 3.10009 37120 ft 433 kts 156°
2026-04-30 14:08 47.91826 3.15217 37121 ft 434 kts 156°
2026-04-30 14:08 47.83487 3.20453 37114 ft 434 kts 156°
2026-04-30 14:09 47.77911 3.23930 37109 ft 435 kts 156°
2026-04-30 14:10 47.69541 3.29130 37111 ft 435 kts 156°
2026-04-30 14:10 47.63982 3.32580 37108 ft 436 kts 156°
2026-04-30 14:11 47.58382 3.36065 37107 ft 437 kts 156°
2026-04-30 14:11 47.52777 3.39537 37102 ft 437 kts 156°
2026-04-30 14:12 47.47152 3.42995 37104 ft 438 kts 156°
2026-04-30 14:12 47.41521 3.46453 37099 ft 439 kts 156°
2026-04-30 14:13 47.35924 3.49897 37105 ft 439 kts 156°
2026-04-30 14:13 47.30278 3.53364 37100 ft 440 kts 157°
2026-04-30 14:14 47.24628 3.56818 37103 ft 440 kts 157°
2026-04-30 14:14 47.18971 3.60277 37099 ft 441 kts 157°
2026-04-30 14:15 47.13334 3.63705 37101 ft 442 kts 157°
2026-04-30 14:15 47.07652 3.67154 37103 ft 442 kts 157°
2026-04-30 14:16 47.01969 3.70604 37107 ft 442 kts 157°
2026-04-30 14:16 46.96589 3.74896 37104 ft 442 kts 140°
2026-04-30 14:16 46.94411 3.77968 37103 ft 442 kts 129°
2026-04-30 14:17 46.92627 3.81624 37102 ft 442 kts 119°
2026-04-30 14:17 46.90222 3.89883 37104 ft 442 kts 111°
2026-04-30 14:17 46.89113 3.94094 36934 ft 445 kts 111°
2026-04-30 14:18 46.87989 3.98324 36396 ft 446 kts 111°
2026-04-30 14:18 46.86862 4.02543 35906 ft 445 kts 111°
2026-04-30 14:18 46.84603 4.10962 34912 ft 444 kts 111°
2026-04-30 14:19 46.82370 4.19303 33946 ft 444 kts 111°
2026-04-30 14:19 46.81246 4.23497 33400 ft 444 kts 111°
2026-04-30 14:19 46.80319 4.27793 32863 ft 444 kts 102°
2026-04-30 14:20 46.79681 4.32204 32333 ft 445 kts 102°
2026-04-30 14:20 46.79046 4.36626 31816 ft 445 kts 102°
2026-04-30 14:20 46.77757 4.45481 30813 ft 447 kts 102°
2026-04-30 14:21 46.77115 4.49860 30329 ft 448 kts 102°
2026-04-30 14:21 46.76459 4.54306 29785 ft 449 kts 102°
2026-04-30 14:21 46.75141 4.63219 28676 ft 451 kts 102°
2026-04-30 14:22 46.74478 4.67694 28119 ft 452 kts 102°
2026-04-30 14:22 46.73145 4.76656 27045 ft 453 kts 102°
2026-04-30 14:22 46.72471 4.81145 26509 ft 454 kts 102°
2026-04-30 14:23 46.71132 4.90058 25470 ft 450 kts 102°
2026-04-30 14:23 46.69794 4.98895 24466 ft 443 kts 102°
2026-04-30 14:24 46.68478 5.07584 23452 ft 436 kts 102°
2026-04-30 14:24 46.67824 5.11886 23124 ft 434 kts 102°
2026-04-30 14:25 46.66511 5.20466 23106 ft 435 kts 102°
2026-04-30 14:25 46.65222 5.29012 23116 ft 435 kts 102°
2026-04-30 14:26 46.63916 5.37618 23113 ft 436 kts 102°
2026-04-30 14:26 46.63260 5.41921 23117 ft 436 kts 102°
2026-04-30 14:26 46.61947 5.50536 23118 ft 436 kts 102°
2026-04-30 14:27 46.61284 5.54843 23120 ft 437 kts 102°
2026-04-30 14:27 46.60613 5.59152 23123 ft 437 kts 102°
2026-04-30 14:27 46.59941 5.63436 22726 ft 432 kts 102°
2026-04-30 14:28 46.58612 5.71836 21244 ft 426 kts 102°
2026-04-30 14:28 46.57818 5.75954 20556 ft 423 kts 110°
2026-04-30 14:28 46.56523 5.79779 19909 ft 421 kts 121°
2026-04-30 14:28 46.54759 5.83155 19270 ft 419 kts 132°
2026-04-30 14:29 46.50060 5.87988 17991 ft 416 kts 158°
2026-04-30 14:29 46.45350 5.89088 16903 ft 413 kts 177°
2026-04-30 14:30 46.36199 5.89455 15721 ft 359 kts 178°
2026-04-30 14:31 46.31406 5.89631 14718 ft 337 kts 178°
2026-04-30 14:31 46.26768 5.89666 13469 ft 333 kts 186°
2026-04-30 14:31 46.24519 5.88970 13088 ft 330 kts 198°
2026-04-30 14:32 46.20603 5.85670 12302 ft 326 kts 223°
2026-04-30 14:32 46.19030 5.83406 11778 ft 320 kts 225°
2026-04-30 14:32 46.17485 5.81154 11258 ft 312 kts 225°
2026-04-30 14:33 46.16422 5.79612 10895 ft 307 kts 225°
2026-04-30 14:33 46.13719 5.75701 9961 ft 298 kts 225°